Location: Belfast
(54.5830°N, 5.9330°W)
Time: 17:47:59
(UTC+01:00)

ISS - Pass Details

Date: 01 March 2024
Orbit: 413 x 419 km, 51.6° (Epoch: 12 April)

Event Time Altitude Azimuth Distance (km) Brightness Sun altitude
Exits shadow 05:48:36 23° 250° (WSW) 973 -2.5 -12.9°
Maximum altitude 05:50:15 38° 197° (SSW) 674 -2.9 -12.6°
Drops below altitude 10° 05:53:26 10° 128° (SE) 1,518 -0.2 -12.2°
Sets 05:55:37 0° 120° (ESE) 2,380 1.1 -11.9°
